| time (UTC) | temp C | wind direction | speed KPH | gust KPH | rain 1hr cm | rain 24hr cm | rain mn cm | humidity % | barometer mb |
| 20260906041205 | 20 | 102 | 0.0 | 1.6 | 0.00 | 0.00 | 0.00 | 89 | 1010.5 |
| 20260906040705 | 20 | 102 | 0.0 | 1.6 | 0.00 | 0.00 | 0.00 | 89 | 1010.6 |
| 20260906035705 | 20 | 102 | 0.0 | 0.0 | 0.00 | 0.00 | 0.00 | 89 | 1010.7 |
| 20260906035206 | 20 | 102 | 0.0 | 0.0 | 0.00 | 0.00 | 0.00 | 89 | 1010.7 |
| 20260906034705 | 20 | 102 | 0.0 | 1.6 | 0.00 | 0.00 | 0.00 | 89 | 1010.8 |
| 20260906034205 | 20 | 102 | 0.0 | 1.6 | 0.00 | 0.00 | 0.00 | 88 | 1010.7 |
| 20260906033705 | 20 | 102 | 0.0 | 1.6 | 0.00 | 0.00 | 0.00 | 87 | 1010.7 |
| 20260906033205 | 20 | 102 | 0.0 | 1.6 | 0.00 | 0.00 | 0.00 | 87 | 1010.7 |
| 20260906032705 | 20 | 102 | 0.0 | 1.6 | 0.00 | 0.00 | 0.00 | 87 | 1010.7 |
| 20260906032205 | 20 | 102 | 1.6 | 1.6 | 0.00 | 0.00 | 0.00 | 87 | 1010.7 |
| 20260906031705 | 20 | 102 | 0.0 | 1.6 | 0.00 | 0.00 | 0.00 | 87 | 1010.7 |
| 20260906031206 | 20 | 102 | 0.0 | 0.0 | 0.00 | 0.00 | 0.00 | 86 | 1010.8 |
| 20260906030706 | 20 | 102 | 0.0 | 0.0 | 0.00 | 0.00 | 0.00 | 86 | 1010.8 |
| 20260906030205 | 20 | 102 | 0.0 | 0.0 | 0.00 | 0.00 | 0.00 | 86 | 1010.8 |
| 20260906025705 | 21 | 102 | 0.0 | 0.0 | 0.00 | 0.00 | 0.00 | 86 | 1010.7 |
| 20260906025205 | 21 | 102 | 0.0 | 0.0 | 0.00 | 0.00 | 0.00 | 88 | 1010.6 |
| 20260906024706 | 21 | 102 | 0.0 | 0.0 | 0.00 | 0.00 | 0.00 | 88 | 1010.5 |
| 20260906024205 | 21 | 102 | 0.0 | 0.0 | 0.00 | 0.00 | 0.00 | 88 | 1010.7 |
| 20260906023705 | 21 | 102 | 0.0 | 1.6 | 0.00 | 0.00 | 0.00 | 88 | 1010.7 |
| 20260906022705 | 21 | 102 | 0.0 | 0.0 | 0.00 | 0.00 | 0.00 | 87 | 1010.7 |
| 20260906022205 | 21 | 102 | 0.0 | 0.0 | 0.00 | 0.00 | 0.00 | 86 | 1010.6 |
| 20260906020705 | 21 | 102 | 0.0 | 1.6 | 0.00 | 0.00 | 0.00 | 85 | 1010.6 |
| 20260906020205 | 21 | 102 | 0.0 | 0.0 | 0.00 | 0.00 | 0.00 | 85 | 1010.5 |
| 20260906015205 | 21 | 102 | 0.0 | 0.0 | 0.00 | 0.00 | 0.00 | 84 | 1010.4 |
| 20260906014705 | 21 | 102 | 0.0 | 0.0 | 0.00 | 0.00 | 0.00 | 83 | 1010.4 |
| 20260906014205 | 21 | 102 | 0.0 | 1.6 | 0.00 | 0.00 | 0.00 | 82 | 1010.4 |
| 20260906013705 | 21 | 102 | 1.6 | 1.6 | 0.00 | 0.00 | 0.00 | 82 | 1010.2 |
| 20260906013205 | 21 | 102 | 0.0 | 1.6 | 0.00 | 0.00 | 0.00 | 81 | 1010.1 |
| 20260906012205 | 22 | 102 | 0.0 | 0.0 | 0.00 | 0.00 | 0.00 | 80 | 1010.0 |
| 20260906011705 | 22 | 102 | 0.0 | 0.0 | 0.00 | 0.00 | 0.00 | 80 | 1009.9 |
| 20260906011206 | 22 | 102 | 0.0 | 0.0 | 0.00 | 0.00 | 0.00 | 80 | 1009.9 |
| 20260906010206 | 22 | 102 | 0.0 | 0.0 | 0.00 | 0.00 | 0.00 | 79 | 1009.9 |
| 20260906005705 | 22 | 102 | 0.0 | 0.0 | 0.00 | 0.00 | 0.00 | 78 | 1009.9 |
| 20260906005206 | 22 | 102 | 0.0 | 1.6 | 0.00 | 0.00 | 0.00 | 78 | 1009.8 |
| 20260906004705 | 22 | 102 | 0.0 | 1.6 | 0.00 | 0.00 | 0.00 | 78 | 1009.8 |
| 20260906004205 | 22 | 102 | 0.0 | 0.0 | 0.00 | 0.00 | 0.00 | 77 | 1009.8 |
| 20260906003705 | 22 | 102 | 0.0 | 0.0 | 0.00 | 0.00 | 0.00 | 77 | 1009.8 |
| 20260906003206 | 22 | 102 | 0.0 | 0.0 | 0.00 | 0.00 | 0.00 | 77 | 1009.8 |
| 20260906002705 | 22 | 102 | 0.0 | 0.0 | 0.00 | 0.00 | 0.00 | 77 | 1009.7 |
| 20260906002206 | 23 | 102 | 0.0 | 1.6 | 0.00 | 0.00 | 0.00 | 76 | 1009.6 |
| 20260906001705 | 23 | 102 | 0.0 | 1.6 | 0.00 | 0.00 | 0.00 | 76 | 1009.6 |
| 20260906001205 | 23 | 102 | 0.0 | 1.6 | 0.00 | 0.00 | 0.00 | 76 | 1009.5 |
| 20260906000705 | 23 | 102 | 0.0 | 1.6 | 0.00 | 0.00 | 0.00 | 75 | 1009.4 |
| 20260906000205 | 23 | 102 | 0.0 | 0.0 | 0.00 | 0.00 | 0.00 | 75 | 1009.4 |
| 20260905235705 | 23 | 102 | 0.0 | 0.0 | 0.00 | 0.00 | 0.00 | 75 | 1009.4 |
| 20260905235205 | 23 | 102 | 0.0 | 0.0 | 0.00 | 0.00 | 0.00 | 75 | 1009.4 |
| 20260905234706 | 23 | 102 | 0.0 | 0.0 | 0.00 | 0.00 | 0.00 | 75 | 1009.4 |
| 20260905233705 | 24 | 102 | 0.0 | 0.0 | 0.00 | 0.00 | 0.00 | 73 | 1009.2 |
| 20260905233205 | 24 | 103 | 0.0 | 0.0 | 0.00 | 0.00 | 0.00 | 73 | 1009.1 |
| 20260905232705 | 24 | 103 | 0.0 | 0.0 | 0.00 | 0.00 | 0.00 | 73 | 1009.2 |
| 20260905232205 | 25 | 103 | 0.0 | 1.6 | 0.00 | 0.00 | 0.00 | 71 | 1009.1 |
| 20260905231205 | 25 | 1 | 0.0 | 1.6 | 0.00 | 0.00 | 0.00 | 70 | 1009.1 |
| 20260905230705 | 25 | 1 | 0.0 | 0.0 | 0.00 | 0.00 | 0.00 | 70 | 1009.1 |
| 20260905230205 | 25 | 1 | 0.0 | 1.6 | 0.00 | 0.00 | 0.00 | 71 | 1009.2 |
| 20260905225706 | 25 | 5 | 0.0 | 1.6 | 0.00 | 0.00 | 0.00 | 70 | 1009.1 |
| 20260905225205 | 25 | 19 | 0.0 | 4.8 | 0.00 | 0.00 | 0.00 | 69 | 1009.0 |
| 20260905222705 | 25 | 9 | 3.2 | 4.8 | 0.00 | 0.00 | 0.00 | 67 | 1008.7 |
| 20260905222205 | 25 | 346 | 1.6 | 3.2 | 0.00 | 0.00 | 0.00 | 66 | 1008.7 |
| 20260905221205 | 26 | 6 | 3.2 | 9.7 | 0.00 | 0.00 | 0.00 | 66 | 1008.8 |
| 20260905220705 | 26 | 5 | 0.0 | 3.2 | 0.00 | 0.00 | 0.00 | 67 | 1008.7 |
| 20260905220205 | 26 | 5 | 0.0 | 3.2 | 0.00 | 0.00 | 0.00 | 68 | 1008.7 |
| 20260905215706 | 26 | 37 | 1.6 | 4.8 | 0.00 | 0.00 | 0.00 | 68 | 1008.7 |
| 20260905214705 | 26 | 42 | 1.6 | 4.8 | 0.00 | 0.00 | 0.00 | 65 | 1008.6 |
| 20260905214205 | 26 | 43 | 1.6 | 3.2 | 0.00 | 0.00 | 0.00 | 65 | 1008.6 |
| 20260905213205 | 26 | 329 | 0.0 | 4.8 | 0.00 | 0.00 | 0.00 | 63 | 1008.7 |
| 20260905212205 | 26 | 47 | 3.2 | 9.7 | 0.00 | 0.00 | 0.00 | 63 | 1008.5 |
| 20260905210705 | 27 | 54 | 8.0 | 14.5 | 0.00 | 0.00 | 0.00 | 62 | 1008.4 |
| 20260905205705 | 27 | 25 | 4.8 | 12.9 | 0.00 | 0.00 | 0.00 | 60 | 1008.3 |
| 20260905205205 | 28 | 31 | 4.8 | 12.9 | 0.00 | 0.00 | 0.00 | 61 | 1008.3 |
| 20260905204705 | 28 | 347 | 3.2 | 9.7 | 0.00 | 0.00 | 0.00 | 59 | 1008.4 |
| 20260905204206 | 28 | 23 | 4.8 | 16.1 | 0.00 | 0.00 | 0.00 | 60 | 1008.5 |
| 20260905203705 | 27 | 69 | 6.4 | 19.3 | 0.00 | 0.00 | 0.00 | 59 | 1008.5 |
| 20260905203205 | 27 | 64 | 11.3 | 19.3 | 0.00 | 0.00 | 0.00 | 60 | 1008.5 |
| 20260905202705 | 27 | 21 | 8.0 | 14.5 | 0.00 | 0.00 | 0.00 | 62 | 1008.5 |
| 20260905202205 | 27 | 32 | 4.8 | 12.9 | 0.00 | 0.00 | 0.00 | 62 | 1008.5 |
| 20260905201705 | 27 | 45 | 4.8 | 9.7 | 0.00 | 0.00 | 0.00 | 63 | 1008.4 |
| 20260905200705 | 27 | 8 | 4.8 | 14.5 | 0.00 | 0.00 | 0.00 | 61 | 1008.4 |
| 20260905200205 | 27 | 49 | 6.4 | 16.1 | 0.00 | 0.00 | 0.00 | 61 | 1008.4 |
| 20260905195205 | 27 | 55 | 8.0 | 16.1 | 0.00 | 0.00 | 0.00 | 62 | 1008.3 |
| 20260905194705 | 27 | 354 | 6.4 | 12.9 | 0.00 | 0.00 | 0.00 | 62 | 1008.3 |
| 20260905194205 | 27 | 18 | 4.8 | 12.9 | 0.00 | 0.00 | 0.00 | 61 | 1008.3 |
| 20260905193705 | 27 | 6 | 3.2 | 14.5 | 0.00 | 0.00 | 0.00 | 57 | 1008.3 |
| 20260905192705 | 27 | 351 | 9.7 | 14.5 | 0.00 | 0.00 | 0.00 | 62 | 1008.5 |
| 20260905192205 | 27 | 4 | 9.7 | 14.5 | 0.00 | 0.00 | 0.00 | 65 | 1008.5 |
| 20260905191705 | 27 | 72 | 11.3 | 19.3 | 0.00 | 0.00 | 0.00 | 66 | 1008.6 |
| 20260905191205 | 27 | 76 | 4.8 | 12.9 | 0.00 | 0.00 | 0.00 | 63 | 1008.8 |
| 20260905190705 | 27 | 83 | 4.8 | 11.3 | 0.00 | 0.00 | 0.00 | 62 | 1009.0 |
| 20260905190205 | 27 | 57 | 9.7 | 19.3 | 0.00 | 0.00 | 0.00 | 63 | 1009.0 |
| 20260905185705 | 27 | 41 | 6.4 | 14.5 | 0.00 | 0.00 | 0.00 | 67 | 1009.1 |
| 20260905185205 | 27 | 1 | 4.8 | 9.7 | 0.00 | 0.00 | 0.00 | 65 | 1009.3 |
| 20260905184705 | 27 | 22 | 4.8 | 12.9 | 0.00 | 0.00 | 0.00 | 63 | 1009.3 |
| 20260905184205 | 27 | 34 | 4.8 | 9.7 | 0.00 | 0.00 | 0.00 | 66 | 1009.3 |
| 20260905183705 | 27 | 36 | 3.2 | 8.0 | 0.00 | 0.00 | 0.00 | 64 | 1009.4 |
| 20260905183205 | 27 | 65 | 4.8 | 11.3 | 0.00 | 0.00 | 0.00 | 63 | 1009.5 |
| 20260905182205 | 28 | 60 | 3.2 | 9.7 | 0.00 | 0.00 | 0.00 | 65 | 1009.7 |
| 20260905181205 | 27 | 12 | 3.2 | 4.8 | 0.00 | 0.00 | 0.00 | 63 | 1009.9 |
| 20260905180705 | 27 | 8 | 3.2 | 4.8 | 0.00 | 0.00 | 0.00 | 66 | 1009.9 |
| 20260905175705 | 27 | 295 | 0.0 | 4.8 | 0.00 | 0.00 | 0.00 | 66 | 1010.0 |
| 20260905174705 | 27 | 2 | 0.0 | 4.8 | 0.00 | 0.00 | 0.00 | 66 | 1010.0 |
| 20260905174205 | 27 | 301 | 1.6 | 4.8 | 0.00 | 0.00 | 0.00 | 65 | 1010.0 |
| 20260905173705 | 27 | 311 | 3.2 | 8.0 | 0.00 | 0.00 | 0.00 | 67 | 1010.1 |
| 20260905172705 | 27 | 3 | 1.6 | 8.0 | 0.00 | 0.00 | 0.00 | 67 | 1010.0 |
| 20260905172205 | 27 | 12 | 6.4 | 9.7 | 0.00 | 0.00 | 0.00 | 64 | 1010.0 |
| 20260905171705 | 27 | 11 | 4.8 | 11.3 | 0.00 | 0.00 | 0.00 | 63 | 1010.0 |
| 20260905171205 | 27 | 3 | 3.2 | 9.7 | 0.00 | 0.00 | 0.00 | 63 | 1010.0 |
| 20260905170705 | 27 | 19 | 4.8 | 12.9 | 0.00 | 0.00 | 0.00 | 63 | 1009.9 |
| 20260905170205 | 27 | 30 | 6.4 | 12.9 | 0.00 | 0.00 | 0.00 | 66 | 1010.0 |
| 20260905165705 | 27 | 352 | 6.4 | 14.5 | 0.00 | 0.00 | 0.00 | 67 | 1010.0 |
| 20260905165205 | 27 | 37 | 4.8 | 14.5 | 0.00 | 0.00 | 0.00 | 65 | 1010.0 |
| 20260905164705 | 27 | 0 | 4.8 | 9.7 | 0.00 | 0.00 | 0.00 | 65 | 1010.0 |
| 20260905164205 | 27 | 21 | 4.8 | 14.5 | 0.00 | 0.00 | 0.00 | 65 | 1010.0 |
| 20260905163705 | 27 | 48 | 6.4 | 12.9 | 0.00 | 0.00 | 0.00 | 67 | 1010.0 |
| 20260905162705 | 27 | 337 | 6.4 | 12.9 | 0.00 | 0.00 | 0.00 | 63 | 1010.3 |
| 20260905161705 | 27 | 344 | 6.4 | 12.9 | 0.00 | 0.00 | 0.00 | 63 | 1010.4 |
| 20260905161205 | 27 | 350 | 6.4 | 12.9 | 0.00 | 0.00 | 0.00 | 63 | 1010.5 |
| 20260905160705 | 27 | 347 | 4.8 | 12.9 | 0.00 | 0.00 | 0.00 | 66 | 1010.4 |
| 20260905160205 | 27 | 7 | 4.8 | 12.9 | 0.00 | 0.00 | 0.00 | 68 | 1010.4 |
| 20260905155705 | 27 | 58 | 4.8 | 9.7 | 0.00 | 0.00 | 0.00 | 65 | 1010.4 |
| 20260905155205 | 27 | 338 | 4.8 | 14.5 | 0.00 | 0.00 | 0.00 | 65 | 1010.3 |
| 20260905154705 | 27 | 39 | 4.8 | 11.3 | 0.00 | 0.00 | 0.00 | 66 | 1010.4 |
| 20260905154205 | 27 | 55 | 6.4 | 11.3 | 0.00 | 0.00 | 0.00 | 67 | 1010.4 |
| 20260905153705 | 27 | 46 | 4.8 | 19.3 | 0.00 | 0.00 | 0.00 | 64 | 1010.3 |
| 20260905153205 | 27 | 13 | 4.8 | 12.9 | 0.00 | 0.00 | 0.00 | 63 | 1010.4 |
| 20260905152205 | 27 | 29 | 4.8 | 9.7 | 0.00 | 0.00 | 0.00 | 67 | 1010.4 |
| 20260905151705 | 27 | 16 | 4.8 | 14.5 | 0.00 | 0.00 | 0.00 | 63 | 1010.5 |
| 20260905151205 | 27 | 16 | 3.2 | 11.3 | 0.00 | 0.00 | 0.00 | 67 | 1010.4 |
| 20260905150705 | 27 | 25 | 1.6 | 4.8 | 0.00 | 0.00 | 0.00 | 66 | 1010.5 |
| 20260905150204 | 27 | 24 | 6.4 | 14.5 | 0.00 | 0.00 | 0.00 | 66 | 1010.6 |
| 20260905145704 | 27 | 22 | 3.2 | 14.5 | 0.00 | 0.00 | 0.00 | 62 | 1010.5 |
| 20260905145204 | 27 | 64 | 8.0 | 14.5 | 0.00 | 0.00 | 0.00 | 64 | 1010.5 |
| 20260905144705 | 27 | 54 | 8.0 | 20.9 | 0.00 | 0.00 | 0.00 | 63 | 1010.4 |
| 20260905143705 | 27 | 58 | 9.7 | 16.1 | 0.00 | 0.00 | 0.00 | 68 | 1010.1 |
| 20260905143205 | 27 | 23 | 9.7 | 19.3 | 0.00 | 0.00 | 0.00 | 65 | 1010.0 |
| 20260905142705 | 27 | 52 | 6.4 | 19.3 | 0.00 | 0.00 | 0.00 | 66 | 1010.0 |
| 20260905141705 | 27 | 60 | 8.0 | 16.1 | 0.00 | 0.00 | 0.00 | 69 | 1010.2 |
| 20260905141205 | 27 | 353 | 6.4 | 16.1 | 0.00 | 0.00 | 0.00 | 69 | 1010.2 |
| 20260905140704 | 27 | 12 | 9.7 | 19.3 | 0.00 | 0.00 | 0.00 | 68 | 1010.1 |
| 20260905140205 | 27 | 50 | 9.7 | 16.1 | 0.00 | 0.00 | 0.00 | 70 | 1010.0 |
| 20260905135705 | 27 | 4 | 6.4 | 12.9 | 0.00 | 0.00 | 0.00 | 67 | 1010.1 |
| 20260905135204 | 27 | 16 | 8.0 | 19.3 | 0.00 | 0.00 | 0.00 | 70 | 1010.0 |
| 20260905134705 | 27 | 50 | 6.4 | 14.5 | 0.00 | 0.00 | 0.00 | 71 | 1010.0 |
| 20260905134205 | 26 | 23 | 8.0 | 14.5 | 0.00 | 0.00 | 0.00 | 76 | 1009.9 |
| 20260905133705 | 26 | 67 | 4.8 | 11.3 | 0.00 | 0.00 | 0.00 | 75 | 1009.9 |
| 20260905133205 | 26 | 45 | 4.8 | 12.9 | 0.00 | 0.00 | 0.00 | 76 | 1010.1 |
| 20260905132705 | 26 | 5 | 4.8 | 11.3 | 0.00 | 0.00 | 0.00 | 75 | 1010.0 |
| 20260905132205 | 26 | 45 | 8.0 | 16.1 | 0.00 | 0.00 | 0.00 | 80 | 1009.9 |
| 20260905131205 | 25 | 54 | 8.0 | 14.5 | 0.00 | 0.00 | 0.00 | 78 | 1009.7 |
| 20260905130204 | 25 | 58 | 4.8 | 9.7 | 0.00 | 0.00 | 0.00 | 77 | 1009.7 |
| 20260905125705 | 26 | 52 | 6.4 | 12.9 | 0.00 | 0.00 | 0.00 | 77 | 1009.7 |
| 20260905125205 | 26 | 54 | 6.4 | 14.5 | 0.00 | 0.00 | 0.00 | 76 | 1009.8 |
| 20260905124704 | 26 | 12 | 4.8 | 12.9 | 0.00 | 0.00 | 0.00 | 76 | 1009.6 |
| 20260905124205 | 26 | 19 | 8.0 | 16.1 | 0.00 | 0.00 | 0.00 | 78 | 1009.7 |
| 20260905123705 | 26 | 67 | 6.4 | 14.5 | 0.00 | 0.00 | 0.00 | 77 | 1009.6 |
| 20260905122705 | 26 | 30 | 4.8 | 11.3 | 0.00 | 0.00 | 0.00 | 80 | 1009.5 |
| 20260905122205 | 26 | 33 | 8.0 | 12.9 | 0.00 | 0.00 | 0.00 | 82 | 1009.6 |
| 20260905121704 | 25 | 42 | 8.0 | 14.5 | 0.00 | 0.00 | 0.00 | 82 | 1009.5 |
| 20260905121205 | 25 | 61 | 4.8 | 9.7 | 0.00 | 0.00 | 0.00 | 83 | 1009.3 |
| 20260905120705 | 25 | 56 | 8.0 | 14.5 | 0.00 | 0.00 | 0.00 | 83 | 1009.3 |
| 20260905120205 | 25 | 37 | 6.4 | 9.7 | 0.00 | 0.00 | 0.00 | 84 | 1009.5 |
| 20260905115705 | 25 | 36 | 6.4 | 12.9 | 0.00 | 0.00 | 0.00 | 86 | 1009.4 |
| 20260905115205 | 25 | 34 | 3.2 | 8.0 | 0.00 | 0.00 | 0.00 | 86 | 1009.4 |
| 20260905114704 | 25 | 13 | 8.0 | 14.5 | 0.00 | 0.00 | 0.00 | 86 | 1009.4 |
| 20260905114204 | 25 | 51 | 6.4 | 14.5 | 0.00 | 0.00 | 0.00 | 87 | 1009.3 |
| 20260905112705 | 24 | 12 | 3.2 | 8.0 | 0.00 | 0.00 | 0.00 | 87 | 1009.0 |
| 20260905111704 | 24 | 333 | 4.8 | 12.9 | 0.00 | 0.00 | 0.00 | 87 | 1009.0 |
| 20260905111205 | 24 | 0 | 6.4 | 12.9 | 0.00 | 0.00 | 0.00 | 87 | 1009.0 |
| 20260905110205 | 24 | 7 | 3.2 | 4.8 | 0.00 | 0.00 | 0.00 | 88 | 1008.9 |
| 20260905105205 | 24 | 347 | 3.2 | 8.0 | 0.00 | 0.00 | 0.00 | 87 | 1008.6 |
| 20260905104705 | 24 | 9 | 1.6 | 8.0 | 0.00 | 0.00 | 0.00 | 87 | 1008.7 |
| 20260905104204 | 24 | 357 | 3.2 | 8.0 | 0.00 | 0.00 | 0.00 | 87 | 1008.8 |
| 20260905103205 | 24 | 355 | 4.8 | 9.7 | 0.00 | 0.00 | 0.00 | 87 | 1008.8 |
| 20260905102705 | 24 | 350 | 3.2 | 4.8 | 0.00 | 0.00 | 0.00 | 87 | 1008.5 |
| 20260905102205 | 24 | 339 | 4.8 | 8.0 | 0.00 | 0.00 | 0.00 | 87 | 1008.4 |
| 20260905101705 | 24 | 0 | 3.2 | 8.0 | 0.00 | 0.00 | 0.00 | 87 | 1008.3 |
| 20260905101205 | 24 | 352 | 4.8 | 9.7 | 0.00 | 0.00 | 0.00 | 86 | 1008.3 |
| 20260905100705 | 24 | 353 | 3.2 | 8.0 | 0.00 | 0.00 | 0.00 | 86 | 1008.3 |
| 20260905100204 | 24 | 345 | 3.2 | 9.7 | 0.00 | 0.00 | 0.00 | 86 | 1008.3 |
| 20260905095705 | 24 | 0 | 1.6 | 8.0 | 0.00 | 0.00 | 0.00 | 87 | 1008.2 |
| 20260905095204 | 24 | 5 | 3.2 | 8.0 | 0.00 | 0.00 | 0.00 | 87 | 1008.1 |
| 20260905094705 | 24 | 353 | 3.2 | 8.0 | 0.00 | 0.00 | 0.00 | 87 | 1008.1 |
| 20260905094205 | 24 | 352 | 4.8 | 8.0 | 0.00 | 0.00 | 0.00 | 87 | 1008.1 |
| 20260905093205 | 24 | 6 | 3.2 | 4.8 | 0.00 | 0.00 | 0.00 | 86 | 1008.0 |
| 20260905092705 | 24 | 4 | 3.2 | 4.8 | 0.00 | 0.00 | 0.00 | 86 | 1007.9 |
| 20260905092205 | 24 | 351 | 3.2 | 4.8 | 0.00 | 0.00 | 0.00 | 86 | 1008.0 |
| 20260905091705 | 24 | 8 | 3.2 | 4.8 | 0.00 | 0.00 | 0.00 | 86 | 1008.1 |
| 20260905091204 | 24 | 353 | 3.2 | 4.8 | 0.00 | 0.00 | 0.00 | 86 | 1008.1 |
| 20260905090705 | 24 | 354 | 1.6 | 4.8 | 0.00 | 0.00 | 0.00 | 86 | 1008.1 |
| 20260905085704 | 24 | 337 | 1.6 | 4.8 | 0.00 | 0.00 | 0.00 | 85 | 1008.2 |
| 20260905085204 | 24 | 355 | 3.2 | 4.8 | 0.00 | 0.00 | 0.00 | 85 | 1008.1 |
| 20260905084705 | 24 | 328 | 1.6 | 4.8 | 0.00 | 0.00 | 0.00 | 85 | 1008.1 |
| 20260905084205 | 24 | 351 | 1.6 | 4.8 | 0.00 | 0.00 | 0.00 | 85 | 1008.1 |
| 20260905083705 | 24 | 303 | 3.2 | 4.8 | 0.00 | 0.00 | 0.00 | 85 | 1008.0 |
| 20260905083205 | 24 | 303 | 3.2 | 8.0 | 0.00 | 0.00 | 0.00 | 85 | 1008.0 |
| 20260905082704 | 24 | 313 | 1.6 | 8.0 | 0.00 | 0.00 | 0.00 | 85 | 1008.0 |
| 20260905082205 | 24 | 337 | 3.2 | 14.5 | 0.00 | 0.00 | 0.00 | 85 | 1008.1 |
| 20260905081704 | 24 | 312 | 6.4 | 14.5 | 0.00 | 0.00 | 0.00 | 85 | 1008.1 |
| 20260905081204 | 25 | 352 | 4.8 | 14.5 | 0.00 | 0.00 | 0.00 | 85 | 1008.2 |
| 20260905080705 | 25 | 347 | 8.0 | 14.5 | 0.00 | 0.00 | 0.00 | 85 | 1008.4 |
| 20260905080205 | 25 | 341 | 3.2 | 14.5 | 0.00 | 0.00 | 0.00 | 85 | 1008.4 |
| 20260905075705 | 25 | 335 | 3.2 | 9.7 | 0.00 | 0.00 | 0.00 | 85 | 1008.5 |
| 20260905075204 | 25 | 330 | 3.2 | 16.1 | 0.00 | 0.00 | 0.00 | 86 | 1008.4 |
| 20260905074704 | 25 | 356 | 3.2 | 8.0 | 0.00 | 0.00 | 0.00 | 86 | 1008.5 |
| 20260905073704 | 25 | 336 | 3.2 | 11.3 | 0.00 | 0.00 | 0.00 | 86 | 1008.5 |
| 20260905072705 | 25 | 14 | 3.2 | 8.0 | 0.00 | 0.00 | 0.00 | 85 | 1008.6 |
| 20260905071705 | 25 | 305 | 3.2 | 12.9 | 0.00 | 0.00 | 0.00 | 86 | 1008.6 |
| 20260905071204 | 25 | 297 | 6.4 | 19.3 | 0.00 | 0.00 | 0.00 | 86 | 1008.6 |
| 20260905070705 | 25 | 196 | 1.6 | 12.9 | 0.00 | 0.00 | 0.00 | 86 | 1008.6 |
| 20260905070204 | 25 | 338 | 4.8 | 12.9 | 0.00 | 0.00 | 0.00 | 86 | 1008.6 |
| 20260905065704 | 25 | 324 | 4.8 | 19.3 | 0.00 | 0.00 | 0.00 | 86 | 1008.7 |
| 20260905065205 | 25 | 224 | 6.4 | 16.1 | 0.00 | 0.00 | 0.00 | 87 | 1008.8 |
| 20260905064705 | 24 | 273 | 4.8 | 11.3 | 0.00 | 0.00 | 0.00 | 87 | 1008.8 |
| 20260905064204 | 24 | 86 | 1.6 | 8.0 | 0.00 | 0.00 | 0.00 | 87 | 1008.8 |
| 20260905063704 | 24 | 271 | 8.0 | 12.9 | 0.00 | 0.00 | 0.00 | 87 | 1008.8 |
| 20260905063204 | 24 | 18 | 3.2 | 8.0 | 0.00 | 0.00 | 0.00 | 87 | 1008.9 |
| 20260905062204 | 24 | 243 | 3.2 | 16.1 | 0.00 | 0.03 | 0.00 | 87 | 1008.9 |
| 20260905061205 | 24 | 270 | 4.8 | 11.3 | 0.00 | 0.03 | 0.00 | 88 | 1009.0 |
| 20260905060205 | 24 | 243 | 3.2 | 9.7 | 0.00 | 0.03 | 0.00 | 88 | 1009.0 |
| 20260905055705 | 24 | 273 | 1.6 | 4.8 | 0.00 | 0.03 | 0.00 | 88 | 1009.0 |
| 20260905054704 | 24 | 233 | 0.0 | 4.8 | 0.00 | 0.08 | 0.00 | 88 | 1009.1 |
| 20260905054205 | 24 | 254 | 4.8 | 12.9 | 0.00 | 0.10 | 0.00 | 88 | 1009.2 |
| 20260905053705 | 24 | 313 | 3.2 | 9.7 | 0.00 | 0.10 | 0.00 | 89 | 1009.2 |
| 20260905053204 | 24 | 241 | 4.8 | 11.3 | 0.00 | 0.10 | 0.00 | 89 | 1009.3 |
| 20260905052705 | 24 | 259 | 3.2 | 8.0 | 0.00 | 0.10 | 0.00 | 89 | 1009.4 |
| 20260905052205 | 24 | 253 | 1.6 | 9.7 | 0.00 | 0.13 | 0.00 | 89 | 1009.4 |
| 20260905051705 | 24 | 243 | 3.2 | 8.0 | 0.00 | 0.15 | 0.00 | 89 | 1009.6 |
| 20260905050705 | 24 | 217 | 3.2 | 8.0 | 0.00 | 0.18 | 0.00 | 89 | 1009.6 |
| 20260905050205 | 24 | 217 | 1.6 | 4.8 | 0.00 | 0.20 | 0.00 | 89 | 1009.6 |
| 20260905045704 | 24 | 219 | 1.6 | 4.8 | 0.00 | 0.25 | 0.00 | 89 | 1009.6 |
| 20260905045204 | 24 | 242 | 3.2 | 8.0 | 0.00 | 0.33 | 0.00 | 89 | 1009.7 |
| 20260905044704 | 24 | 248 | 1.6 | 4.8 | 0.00 | 0.41 | 0.00 | 89 | 1009.7 |
| 20260905044204 | 24 | 194 | 1.6 | 4.8 | 0.00 | 0.58 | 0.00 | 89 | 1009.7 |
| 20260905042704 | 24 | 211 | 0.0 | 3.2 | 0.00 | 0.81 | 0.00 | 88 | 1009.7 |
| 20260905042205 | 24 | 296 | 0.0 | 4.8 | 0.00 | 0.81 | 0.00 | 88 | 1009.7 |